Location: Ahausen
(50.4985°N, 8.2722°E)
Time: 13:40:01
(UTC+00:00)

JY1SAT - Pass Details

Date: 09 July 2022
Orbit: 564 x 586 km, 97.6° (Epoch: 08 August)

Event Time Altitude Azimuth Distance (km) Brightness Sun altitude
Exits shadow 20:43:49 - 165° (SSE) 2,029 ? -8.3°
Reaches altitude 10° 20:44:07 10° 165° (SSE) 1,908 ? -8.3°
Maximum altitude 20:48:16 89° 227° (SW) 593 ? -8.7°
Drops below altitude 10° 20:52:26 10° 346° (NNW) 1,915 ? -9.1°
Sets 20:54:36 0° 347° (NNW) 2,817 ? -9.3°
